Regional Weather Roundup
Issued by NWS

Home | Current Version | Previous Version | Text Only | Print | Product List | Glossary On
Versions: 1 2 3 4 5 6 7 8 9 10 11 12 13 14 15 16 17 18 19 20 21 22 23 24 25 26 27 28 29 30 31 32 33 34 35 36 37 38 39 40 41 42 43 44 45 46 47 48 49 50
000
ASUS42 KKEY 281810
RWRKEY

FLORIDA REGIONAL WEATHER ROUNDUP FOR THE FLORIDA KEYS
NATIONAL WEATHER SERVICE KEY WEST FLORIDA
200 PM EDT THU MAY 28 2015

...SOUTH FLORIDA AND THE KEYS...

CITY           SKY/WX    TMP DP  RH WIND       PRES   REMARKS
FORT MYERS     PTSUNNY   88  57  34 E13G20    30.08F
SW REGIONAL AP PTSUNNY   86  57  37 NE17      30.08F
NAPLES         MOSUNNY   88  62  41 E15G22    30.07F
MIAMI          PTSUNNY   85  63  47 E13G23    30.08F
WEST KENDALL   MOSUNNY   87  63  44 E16       30.08F
HOMESTEAD      MOSUNNY   84  66  55 NE15G22   30.08F
MARATHON       CLOUDY    86  64  47 E10G18    30.07F
BOCA CHICA NAS PTSUNNY   86  64  47 E18       30.06F
KEY WEST INTL  SUNNY     85  66  53 E16       30.07F

...INTERNATIONAL WEATHER...

CITY           SKY/WX    TMP DP  RH WIND       PRES   REMARKS
NASSAU BAHAMAS MOSUNNY   82  66  57 E15       30.07F
CANCUN MEXICO  MOSUNNY   88  72  58 E14       30.01F HX  94
COZUMEL MEXICO MOSUNNY   84  70  61 NE15      30.00F

ADJACENT COASTAL WATERS...

STATION/POSITION TIME  SKY/WX   TEMP    WIND        PRES    WAVE
                                AIR SEA DIR/SP/G            HT/PER
                 (UTC)          (F)     (DEG/KT/KT) (MB)    (FT/S)
PULASKI SHOAL LI 1700            80      70/ 17/ 19 1018.6F
SAND KEY         1750            80      90/ 16/ 18 1018.0F
SOMBRERO KEY     1800            80      80/ 16/ 17 1018.5F
LONG KEY         1700            80 81   90/ 14/ 15 1019.5S
MOLASSES REEF    1800            79 82   80/ 14/ 15 1018.2F
FOWEY ROCKS      NOT AVBL

$$


USA.gov is the U.S. government's official web portal to all federal, state and local government web resources and services.